Regional Weather Roundup
Issued by NWS Cleveland, OH

Home | Current Version | Previous Version | Graphics & Text | Print | Product List | Glossary On
Versions: 1 2 3 4 5 6 7 8 9 10 11 12 13 14 15 16 17 18 19 20 21 22 23 24 25 26 27 28 29 30 31 32 33 34 35 36 37 38 39 40 41 42 43 44 45 46 47 48 49 50
000
ASUS41 KCLE 201212
RWRCLE
OHIO REGIONAL WEATHER ROUNDUP
NATIONAL WEATHER SERVICE WILMINGTON, OH
800 AM EDT SUN MAY 20 2018

NOTE: "FAIR" INDICATES FEW OR NO CLOUDS BELOW 12,000 FEET WITH NO
SIGNIFICANT WEATHER AND/OR OBSTRUCTIONS TO VISIBILITY.

OHZ001>008-015>018-024>027-034-035-043-044-201300-
   NORTHWEST OHIO

CITY           SKY/WX    TMP DP  RH WIND       PRES   REMARKS
DEFIANCE       CLOUDY    60  56  86 NE7       30.09R
FINDLAY        CLOUDY    62  57  83 N5        30.07R
TOLEDO EXPRESS CLOUDY    61  60  97 N5        30.07R
TOLEDO EXEC    CLOUDY    63  58  83 N5        30.08R
LIMA           CLOUDY    60  57  89 N6        30.09R
$$

OHZ009>014-019>023-028>033-038-089-201300-
   NORTHEAST OHIO

CITY           SKY/WX    TMP DP  RH WIND       PRES   REMARKS
CLE-HOPKINS    DRIZZLE   56  55  97 N7        30.10R FOG
CLE-LAKEFRONT  LGT RAIN  55  53  93 NE3       30.08R FOG
CUY CO. ARPT   CLOUDY    57  55  94 NE12      30.09R FOG
LORAIN-ELYRIA  CLOUDY    56  51  84 NE10G18   30.10R HAZE
ASHTABULA      CLOUDY    55  55 100 NW8       30.07R FOG
AKRON-CANTON   CLOUDY    65  60  84 NW8       30.06R
WOOSTER        CLOUDY    63  60  90 NW5       30.08R
MANSFIELD      CLOUDY    61  60  97 NW8       30.08R
YOUNGSTOWN     DRIZZLE   61  59  93 N12       30.05R FOG
$$

OHZ042-051>053-060>062-070>072-077>081-201300-
  SOUTHWEST OHIO

CITY           SKY/WX    TMP DP  RH WIND       PRES   REMARKS
CINC-COVINGTON PTSUNNY   68  65  90 SW5       30.08R
CINC-LUNKEN    FAIR      66  66 100 CALM      30.08R FOG
HAMILTON       FAIR      67  28  23 CALM      30.08R HAZE
DAYTON         CLOUDY    63  63 100 N5        30.10R FOG
WRIGHT-PAT AFB PTSUNNY   64  60  85 N7        30.08R
DAYTON GENERAL CLOUDY    68  63  84 N6        30.08R HAZE
WILMINGTON     CLOUDY    67  67 100 W5        30.07S FOG
$$

OHZ036-037-039>041-045>050-054>059-063>069-073>076-082>088-201300-
  CENTRAL AND SOUTHEAST OHIO

CITY           SKY/WX    TMP DP  RH WIND       PRES   REMARKS
COLUMBUS       PTSUNNY   67  60  78 NW8       30.06R
OSU AIRPORT    FAIR      64  59  83 NW7       30.07R
BOLTON FIELD   PTSUNNY   64  61  88 N6        30.07R
RICKENBACK AFB CLOUDY    65  65 100 MISG      30.06R FOG
NEWARK         CLOUDY    68  64  87 NW6       30.05S
MARION         CLOUDY    60  56  86 N12       30.09R
LANCASTER      CLOUDY    69  67  93 W3        30.07R FOG
ZANESVILLE     PTSUNNY   69  66  90 CALM      30.06R FOG
NEW PHILLY     CLOUDY    67  63  87 NW7       30.07R
$$



USA.gov is the U.S. government's official web portal to all federal, state and local government web resources and services.